Flag for France Weather past 2 weeks in Gustavia, Saint Barthélemy, France

Now
88 °F

Scattered clouds.


Feels Like: 100 °F
Forecast: 83 / 86 °F
Wind: 10 mph from Southeast

Location: Juliana Airport - Saint Maarten

Current Time: Sep 18, 2014 at 3:48:49 PM

Latest Report: Sep 18, 2014 at 3:00 PM


Visibility: N/A

Pressure: 29.92 "Hg

Humidity: 70%

Dew point: 77 °F

Location of GustaviaLocation

Historic Weather in Gustavia — Graph

°F

Gustavia temperature yesterday

Maximum temperature yesterday: 90 °F (at 12:00 PM)
Minimum temperature yesterday: 82 °F (at 12:00 AM)
Average temperature yesterday: 85 °F

Past Weeks' High & Low Weather Summary

 TemperatureHumidityPressure
High90 °F (Sep 3, 3:00 PM)94% (Sep 4, 6:00 AM)30.07 "Hg (Sep 4, 6:00 AM)
Low77 °F (Sep 4, 6:00 AM)52% (Sep 17, 1:00 PM)29.89 "Hg (Sep 17, 4:00 PM)
Average84 °F73%29.99 "Hg
* Reported Sep 3 2:00 PM — Sep 18 2:00 PM, Gustavia, Weather by CustomWeather, © 2014

Note: Actual official high and low records may vary slightly from our data, if they occured in-between our weather recording intervals... More about our weather records

Advertising

Gustavia weather history for previous 24 hours

 ConditionsComfort  
Time TempWeatherWind HumidityBarometerVisibility
2:00 PM
Sep 18
86 °FPassing clouds.7 mph75%29.92 "HgN/A
1:00 PM88 °FScattered clouds.13 mph70%29.92 "HgN/A
12:00 PM86 °FPartly sunny.12 mph75%29.98 "HgN/A
11:00 AM86 °FSprinkles. Partly sunny.12 mph75%29.98 "HgN/A
10:00 AM86 °FScattered clouds.10 mph79%29.98 "HgN/A
9:00 AM82 °FPassing clouds.10 mph79%29.98 "HgN/A
8:00 AM84 °FPartly sunny.8 mph79%29.95 "HgN/A
7:00 AM82 °FScattered showers. Scattered clouds.9 mph84%29.95 "Hg2 mi
6:00 AM82 °FSprinkles. Scattered clouds.6 mph84%29.92 "HgN/A
5:00 AM82 °FPassing clouds.5 mph84%29.92 "HgN/A
4:00 AM82 °FPassing clouds.5 mph84%29.92 "HgN/A
3:00 AM82 °FPassing clouds.5 mph84%29.89 "HgN/A
2:00 AM82 °FPassing clouds.6 mph84%29.92 "HgN/A
1:00 AM82 °FSprinkles. Passing clouds.7 mph84%29.92 "HgN/A
12:00 AM84 °FPassing clouds.7 mph79%29.95 "HgN/A
10:00 PM
Sep 17
84 °FPassing clouds.7 mph79%29.95 "HgN/A
9:00 PM84 °FPassing clouds.8 mph79%29.95 "HgN/A
8:00 PM84 °FPassing clouds.6 mph74%29.95 "HgN/A
7:00 PM84 °FPassing clouds.10 mph74%29.92 "HgN/A
6:00 PM84 °FPassing clouds.12 mph70%29.92 "HgN/A
5:00 PM86 °FScattered clouds.9 mph70%29.92 "HgN/A
4:00 PM88 °FScattered clouds.9 mph62%29.89 "HgN/A
3:00 PM88 °FScattered clouds.12 mph62%29.92 "HgN/A
Weather by CustomWeather, © 2014

See weather overviewHow to use our weather pages